DW8340 Weather Reports


Display with metric or nautical units.
time (UTC)temp
F
wind
direction
speed
MPH
gust
MPH
rain 1hr
in
rain 24hr
in
rain mn
in
humidity
%
barometer
mb
20260510204040 72 279 1.0 5.0 0.00 0.19 0.00 53 1013.2
20260510203540 73 241 2.0 5.0 0.00 0.19 0.00 52 1013.0
20260510203044 73 287 1.0 4.0 0.00 0.19 0.00 52 1013.0
20260510202542 73 301 0.0 4.0 0.00 0.19 0.00 50 1012.9
20260510202039 73 283 0.0 6.0 0.00 0.19 0.00 50 1012.7
20260510201551 73 300 1.0 6.0 0.00 0.19 0.00 49 1012.8
20260510201042 74 292 1.0 6.0 0.00 0.19 0.00 48 1012.8
20260510200540 74 302 1.0 6.0 0.00 0.19 0.00 49 1012.9
20260510200054 74 281 2.0 6.0 0.00 0.19 0.00 48 1012.9
20260510195542 74 276 1.0 7.0 0.00 0.22 0.00 48 1012.9
20260510195044 74 91 2.0 7.0 0.00 0.22 0.00 48 1013.0
20260510194548 74 290 1.0 6.0 0.00 0.22 0.00 48 1013.0
20260510194043 74 306 1.0 6.0 0.00 0.22 0.00 48 1013.0
20260510193540 74 283 1.0 4.0 0.00 0.22 0.00 48 1012.9
20260510193048 74 0 1.0 6.0 0.00 0.22 0.00 50 1012.8
20260510192539 74 281 1.0 7.0 0.00 0.22 0.00 50 1012.9
20260510192040 75 275 2.0 7.0 0.00 0.22 0.00 55 1012.9
20260510191557 75 257 0.0 7.0 0.00 0.22 0.00 59 1013.0
20260510191040 75 5 1.0 7.0 0.00 0.22 0.00 58 1013.0
20260510190539 75 0 0.0 3.0 0.00 0.22 0.00 58 1013.1
20260510190049 75 194 0.0 3.0 0.00 0.22 0.00 58 1013.0
20260510185539 76 0 1.0 3.0 0.00 0.29 0.00 58 1013.1
20260510185040 76 219 0.0 3.0 0.00 0.29 0.00 58 1013.2
20260510184552 75 175 1.0 3.0 0.00 0.29 0.00 58 1013.2
20260510184039 75 238 0.0 3.0 0.00 0.29 0.00 58 1013.2
20260510183543 75 246 0.0 3.0 0.00 0.29 0.00 59 1013.2
20260510183052 75 0 1.0 3.0 0.00 0.29 0.00 58 1013.2
20260510182543 75 0 0.0 4.0 0.00 0.29 0.00 59 1013.2
20260510182039 75 250 0.0 4.0 0.00 0.29 0.00 58 1013.2
20260510181551 75 263 0.0 3.0 0.00 0.29 0.00 59 1013.3
20260510181041 75 321 0.0 3.0 0.00 0.29 0.00 59 1013.3
20260510180540 75 0 0.0 3.0 0.00 0.29 0.00 59 1013.2
20260510180046 75 192 0.0 2.0 0.00 0.29 0.00 58 1013.3
20260510175542 75 254 0.0 3.0 0.00 0.31 0.00 58 1013.3
20260510175039 76 0 0.0 3.0 0.00 0.31 0.00 57 1013.2
20260510174550 76 0 0.0 3.0 0.00 0.31 0.00 57 1013.1
20260510174039 76 0 0.0 3.0 0.00 0.31 0.00 56 1013.2
20260510173539 76 0 1.0 6.0 0.00 0.31 0.00 56 1013.1
20260510173046 76 203 1.0 6.0 0.00 0.31 0.00 59 1013.2
20260510172543 76 236 1.0 4.0 0.00 0.31 0.00 60 1013.3
20260510172039 76 101 0.0 4.0 0.00 0.31 0.00 60 1013.2
20260510171548 75 0 0.0 3.0 0.00 0.31 0.00 61 1013.3
20260510171038 74 250 1.0 5.0 0.00 0.31 0.00 62 1013.3
20260510170541 74 0 1.0 5.0 0.00 0.31 0.00 63 1013.3
20260510170044 73 0 0.0 3.0 0.00 0.31 0.00 63 1013.4
20260510165539 73 0 0.0 2.0 0.00 0.31 0.00 64 1013.3
20260510165038 73 0 0.0 4.0 0.00 0.31 0.00 65 1013.4
20260510164607 72 0 0.0 4.0 0.00 0.31 0.00 64 1013.3
20260510164039 72 203 1.0 4.0 0.00 0.31 0.00 65 1013.4
20260510163540 72 217 1.0 4.0 0.00 0.31 0.00 67 1013.4
20260510163048 72 0 1.0 4.0 0.00 0.31 0.00 68 1013.4
20260510162540 71 0 0.0 3.0 0.00 0.31 0.00 69 1013.6
20260510162042 71 0 1.0 3.0 0.00 0.31 0.00 70 1013.6
20260510161548 70 264 1.0 3.0 0.00 0.31 0.00 71 1013.7
20260510161039 70 0 0.0 3.0 0.00 0.31 0.00 72 1013.6
20260510160541 69 246 0.0 3.0 0.00 0.31 0.00 76 1013.3
20260510160055 69 120 0.0 4.0 0.00 0.31 0.00 76 1013.3
20260510155540 68 188 0.0 4.0 0.00 0.31 0.00 78 1013.5
20260510155040 67 255 0.0 4.0 0.00 0.31 0.00 82 1013.6
20260510154544 66 0 0.0 3.0 0.00 0.31 0.00 85 1013.6
20260510154040 65 262 0.0 3.0 0.00 0.31 0.00 88 1013.6
20260510153539 64 69 1.0 3.0 0.00 0.31 0.00 89 1013.7
20260510153057 63 163 0.0 2.0 0.00 0.31 0.00 91 1013.7
20260510152540 63 0 0.0 2.0 0.00 0.31 0.00 92 1013.8
20260510152040 62 0 0.0 2.0 0.00 0.31 0.00 93 1013.7
20260510151558 61 0 0.0 3.0 0.00 0.31 0.00 93 1013.8
20260510151041 60 261 1.0 3.0 0.00 0.31 0.00 93 1014.0
20260510150540 59 84 0.0 3.0 0.00 0.31 0.00 93 1014.0
20260510150048 59 125 1.0 3.0 0.00 0.31 0.00 93 1014.1
20260510145540 59 0 0.0 2.0 0.00 0.31 0.00 93 1014.1
20260510145038 59 295 0.0 2.0 0.00 0.31 0.00 94 1013.9
20260510144551 58 0 0.0 2.0 0.00 0.31 0.00 94 1013.8
20260510144039 58 191 0.0 2.0 0.00 0.31 0.00 94 1014.0
20260510143539 57 0 0.0 2.0 0.00 0.31 0.00 94 1014.0
20260510143049 57 0 0.0 2.0 0.00 0.31 0.00 94 1014.1
20260510142540 57 0 0.0 2.0 0.00 0.31 0.00 94 1014.0
20260510142040 57 0 0.0 2.0 0.00 0.31 0.00 94 1014.2
20260510141549 57 0 0.0 2.0 0.00 0.31 0.00 94 1014.0
20260510141040 57 98 0.0 2.0 0.00 0.31 0.00 94 1013.9
20260510140540 56 0 0.0 3.0 0.00 0.31 0.00 94 1014.0
20260510140050 56 109 0.0 3.0 0.00 0.31 0.00 93 1013.8
20260510135540 56 0 0.0 1.0 0.00 0.31 0.00 94 1013.9
20260510135040 56 140 0.0 1.0 0.00 0.31 0.00 94 1013.8
20260510134553 56 0 0.0 2.0 0.00 0.31 0.00 94 1013.8
20260510134040 56 0 0.0 2.0 0.00 0.31 0.00 94 1013.8
20260510133544 56 0 1.0 2.0 0.00 0.31 0.00 94 1013.8
20260510133133 56 0 0.0 2.0 0.00 0.31 0.00 94 1013.8
20260510132540 56 0 0.0 2.0 0.00 0.31 0.00 94 1013.7
20260510132040 55 0 0.0 2.0 0.00 0.31 0.00 94 1013.7
20260510131601 55 0 0.0 2.0 0.00 0.31 0.00 94 1013.6
20260510131042 55 0 0.0 2.0 0.00 0.31 0.00 94 1013.7
20260510130540 55 0 0.0 2.0 0.00 0.31 0.00 94 1013.7
20260510130050 55 85 0.0 2.0 0.00 0.31 0.00 94 1013.5
20260510125540 55 0 0.0 2.0 0.00 0.31 0.00 94 1013.5
20260510125041 55 95 0.0 2.0 0.00 0.31 0.00 94 1013.5
20260510124548 55 0 0.0 1.0 0.00 0.31 0.00 94 1013.6
20260510124044 55 0 0.0 1.0 0.00 0.31 0.00 94 1013.4
20260510123540 55 0 0.0 2.0 0.00 0.31 0.00 94 1013.4
20260510123046 55 0 0.0 2.0 0.00 0.31 0.00 94 1013.5
20260510122540 55 0 0.0 2.0 0.00 0.31 0.00 94 1013.3
20260510122039 55 0 0.0 2.0 0.00 0.31 0.00 94 1013.0
20260510121556 54 0 0.0 1.0 0.00 0.31 0.00 94 1013.2
20260510121040 54 0 0.0 1.0 0.00 0.31 0.00 94 1013.1
20260510120540 54 0 0.0 1.0 0.00 0.31 0.00 94 1013.0
20260510120043 54 0 0.0 1.0 0.00 0.31 0.00 94 1012.9
20260510115539 54 114 0.0 1.0 0.00 0.31 0.00 94 1012.8
20260510115040 54 0 0.0 2.0 0.00 0.31 0.00 94 1013.0
20260510114559 54 136 0.0 2.0 0.00 0.31 0.00 94 1012.9
20260510114043 54 0 0.0 1.0 0.00 0.31 0.00 94 1012.9
20260510113540 54 0 0.0 2.0 0.00 0.31 0.00 94 1012.9
20260510113051 54 0 0.0 3.0 0.00 0.31 0.00 94 1012.7
20260510112540 53 0 0.0 3.0 0.00 0.31 0.00 94 1012.6
20260510112040 53 101 1.0 4.0 0.00 0.31 0.00 94 1012.4
20260510111544 53 0 0.0 4.0 0.00 0.31 0.00 94 1012.3
20260510111039 53 95 0.0 4.0 0.00 0.31 0.00 94 1012.2
20260510110542 53 124 0.0 3.0 0.00 0.31 0.00 94 1012.0
20260510110045 53 0 0.0 3.0 0.00 0.31 0.00 94 1011.9
20260510105540 53 114 0.0 3.0 0.00 0.31 0.00 93 1012.1
20260510105040 53 0 0.0 3.0 0.00 0.31 0.00 93 1012.2
20260510104556 53 107 0.0 3.0 0.00 0.31 0.00 93 1012.2
20260510104043 53 0 0.0 2.0 0.00 0.31 0.00 93 1012.2
20260510103540 53 121 0.0 2.0 0.00 0.31 0.00 93 1012.3
20260510103054 53 86 0.0 2.0 0.00 0.31 0.00 93 1012.1
20260510102540 53 0 0.0 2.0 0.00 0.31 0.00 93 1012.0
20260510102042 53 107 0.0 3.0 0.00 0.31 0.00 93 1012.2
20260510101551 53 117 0.0 3.0 0.00 0.31 0.00 93 1012.2
20260510101041 53 118 1.0 3.0 0.00 0.31 0.00 93 1012.1
20260510100540 53 120 1.0 3.0 0.00 0.31 0.00 93 1012.3
20260510100054 53 0 1.0 3.0 0.00 0.31 0.00 93 1012.2
20260510095540 53 161 1.0 3.0 0.00 0.31 0.00 93 1012.3
20260510095043 53 113 0.0 3.0 0.00 0.31 0.00 93 1012.4
20260510094553 53 0 0.0 2.0 0.00 0.31 0.00 93 1012.3
20260510094043 53 0 0.0 2.0 0.00 0.31 0.00 93 1012.3
20260510093543 53 115 0.0 2.0 0.00 0.31 0.00 93 1012.3
20260510093049 53 0 0.0 2.0 0.00 0.31 0.00 93 1012.4
20260510092541 53 132 0.0 2.0 0.00 0.31 0.00 93 1012.7
20260510092040 53 0 0.0 2.0 0.00 0.31 0.00 93 1012.6
20260510091552 53 0 0.0 1.0 0.00 0.31 0.00 93 1012.7
20260510091039 53 0 0.0 1.0 0.00 0.31 0.00 93 1012.7
20260510090541 53 0 0.0 1.0 0.00 0.31 0.00 93 1012.9
20260510090117 53 0 0.0 1.0 0.00 0.31 0.00 93 1012.7
20260510085540 53 0 0.0 0.0 0.00 0.31 0.00 93 1012.6
20260510085042 53 0 0.0 2.0 0.00 0.31 0.00 93 1012.6
20260510084553 53 0 0.0 2.0 0.00 0.31 0.00 93 1012.7
20260510084040 53 0 0.0 1.0 0.00 0.31 0.00 93 1012.5
20260510083540 53 0 0.0 1.0 0.00 0.31 0.00 93 1012.5
20260510083054 53 0 0.0 1.0 0.00 0.31 0.00 93 1012.6
20260510082540 53 0 0.0 1.0 0.00 0.31 0.00 93 1012.7
20260510082041 53 0 0.0 1.0 0.00 0.31 0.00 93 1012.7
20260510081544 53 0 0.0 1.0 0.00 0.31 0.00 93 1012.3
20260510081040 53 0 0.0 1.0 0.00 0.31 0.00 93 1012.5
20260510080540 53 0 0.0 0.0 0.00 0.31 0.00 93 1012.0
20260510080056 53 0 0.0 1.0 0.00 0.31 0.00 93 1011.9
20260510075540 53 0 0.0 1.0 0.00 0.31 0.00 93 1011.9
20260510075040 53 0 0.0 1.0 0.00 0.31 0.00 93 1011.8
20260510074602 53 0 0.0 2.0 0.00 0.31 0.00 93 1011.8
20260510074041 53 115 0.0 2.0 0.00 0.31 0.00 93 1011.7
20260510073540 53 0 0.0 1.0 0.00 0.31 0.00 93 1011.7
20260510073047 53 0 0.0 1.0 0.00 0.31 0.00 93 1011.8
20260510072540 53 0 0.0 0.0 0.00 0.31 0.00 93 1011.8
20260510072040 53 0 0.0 1.0 0.00 0.31 0.00 93 1011.7
20260510071557 53 0 0.0 1.0 0.00 0.31 0.00 93 1011.8
20260510071043 53 0 0.0 2.0 0.00 0.31 0.00 93 1011.8
20260510070540 53 0 0.0 2.0 0.00 0.31 0.00 93 1011.9
20260510070047 53 0 0.0 1.0 0.00 0.31 0.00 93 1012.0
20260510065540 53 114 0.0 0.0 0.00 0.31 0.00 93 1012.1
20260510065040 53 0 0.0 1.0 0.00 0.31 0.00 93 1012.1
20260510064607 53 0 0.0 1.0 0.00 0.31 0.00 93 1012.0
20260510064039 53 0 0.0 1.0 0.00 0.31 0.00 93 1012.0
20260510063544 53 0 0.0 0.0 0.00 0.31 0.00 93 1011.9
20260510063100 53 0 0.0 0.0 0.00 0.31 0.00 93 1011.9
20260510062539 53 0 0.0 0.0 0.00 0.31 0.00 93 1011.8
20260510062039 53 0 0.0 0.0 0.00 0.31 0.00 93 1011.8
20260510061554 53 0 0.0 0.0 0.00 0.31 0.00 93 1011.8
20260510061040 53 0 0.0 0.0 0.00 0.31 0.00 93 1011.7
20260510060541 53 0 0.0 0.0 0.00 0.31 0.00 93 1011.7
20260510060056 53 0 0.0 0.0 0.00 0.31 0.00 93 1011.6
20260510055540 53 0 0.0 1.0 0.00 0.31 0.00 93 1011.7
20260510055040 53 0 0.0 1.0 0.00 0.31 0.00 92 1011.7
20260510054554 53 0 0.0 1.0 0.00 0.31 0.00 92 1011.7
20260510054041 53 0 0.0 1.0 0.00 0.31 0.00 92 1011.8
20260510053541 52 0 0.0 0.0 0.00 0.31 0.00 92 1011.7
20260510053053 52 0 0.0 1.0 0.00 0.31 0.00 92 1011.7
20260510052541 52 0 0.0 1.0 0.00 0.31 0.00 92 1011.8
20260510052040 52 114 0.0 1.0 0.00 0.31 0.00 92 1011.9
20260510051600 52 0 0.0 1.0 0.00 0.31 0.00 92 1011.9
20260510051039 52 0 0.0 1.0 0.00 0.31 0.00 92 1011.9
20260510050539 52 114 0.0 1.0 0.00 0.31 0.00 92 1011.9
20260510050051 51 0 0.0 1.0 0.00 0.31 0.00 92 1012.0
20260510045541 51 0 0.0 1.0 0.00 0.31 0.00 92 1011.9
20260510045040 51 0 0.0 0.0 0.00 0.31 0.00 91 1011.9
20260510044555 51 0 0.0 0.0 0.00 0.31 0.00 91 1012.0
20260510044043 51 0 0.0 0.0 0.00 0.31 0.00 91 1012.1
20260510043540 51 0 0.0 0.0 0.00 0.31 0.00 91 1012.0
20260510043059 51 0 0.0 0.0 0.00 0.31 0.00 91 1012.1
20260510042540 51 0 0.0 1.0 0.00 0.31 0.00 91 1012.1
20260510042041 51 0 0.0 1.0 0.00 0.31 0.00 91 1011.9
20260510041607 51 115 0.0 1.0 0.00 0.31 0.00 91 1011.9
20260510041041 51 115 0.0 1.0 0.00 0.31 0.00 90 1011.9
20260510040540 51 0 0.0 0.0 0.00 0.31 0.00 90 1011.9
20260510040050 51 0 0.0 0.0 0.00 0.31 0.00 90 1011.9
20260510035540 51 0 0.0 0.0 0.00 0.31 0.31 90 1011.8
20260510035040 51 0 0.0 0.0 0.00 0.31 0.31 90 1011.8
20260510034546 51 0 0.0 0.0 0.00 0.31 0.31 90 1011.8
20260510034042 51 0 0.0 0.0 0.00 0.31 0.31 90 1011.6
20260510033543 52 0 0.0 0.0 0.00 0.31 0.31 90 1011.5
20260510033041 52 0 0.0 0.0 0.00 0.31 0.31 90 1011.5
20260510032541 52 0 0.0 0.0 0.00 0.31 0.31 90 1011.6
20260510032043 52 0 0.0 0.0 0.00 0.31 0.31 90 1011.4
20260510031541 52 0 0.0 0.0 0.00 0.31 0.31 90 1011.5
20260510031040 52 0 0.0 0.0 0.00 0.31 0.31 90 1011.5
20260510030543 52 0 0.0 0.0 0.00 0.31 0.31 90 1011.6
20260510030052 52 0 0.0 0.0 0.00 0.31 0.31 90 1011.5
20260510025540 52 0 0.0 0.0 0.00 0.31 0.31 90 1011.4
20260510025040 52 0 0.0 0.0 0.00 0.31 0.31 90 1011.5
20260510024557 52 0 0.0 0.0 0.00 0.31 0.31 90 1011.7
20260510024043 52 0 0.0 0.0 0.00 0.31 0.31 90 1011.6
20260510023540 52 0 0.0 0.0 0.00 0.31 0.31 90 1011.7
20260510023053 52 0 0.0 0.0 0.00 0.31 0.31 89 1011.8
20260510022542 52 0 0.0 0.0 0.00 0.31 0.31 90 1011.8
20260510022040 53 0 0.0 0.0 0.00 0.31 0.31 89 1011.9
20260510021544 53 0 0.0 0.0 0.00 0.31 0.31 89 1011.8
20260510021039 53 0 0.0 0.0 0.00 0.31 0.31 89 1011.6
20260510020540 53 0 0.0 0.0 0.00 0.31 0.31 89 1011.6
20260510020055 53 0 0.0 0.0 0.00 0.31 0.31 89 1011.7
20260510015541 53 0 0.0 0.0 0.00 0.31 0.31 89 1011.7
20260510015040 53 0 0.0 0.0 0.00 0.31 0.31 90 1011.6
20260510014553 53 0 0.0 0.0 0.00 0.31 0.31 90 1011.6
20260510014040 53 0 0.0 0.0 0.00 0.31 0.31 90 1011.7
20260510013541 54 0 0.0 0.0 0.00 0.31 0.31 90 1011.7
20260510013103 54 0 0.0 0.0 0.00 0.31 0.31 89 1011.5
20260510012543 54 0 0.0 0.0 0.00 0.31 0.31 90 1011.5
20260510012040 54 0 0.0 0.0 0.00 0.31 0.31 90 1011.4
20260510011551 54 0 0.0 0.0 0.00 0.31 0.31 90 1011.4
20260510011040 54 0 0.0 0.0 0.01 0.31 0.31 90 1011.2
20260510010541 54 0 0.0 0.0 0.01 0.31 0.31 90 1011.1
20260510010059 54 0 0.0 0.0 0.01 0.31 0.31 90 1011.1
20260510005541 55 0 0.0 0.0 0.01 0.31 0.31 90 1011.0
20260510005040 55 0 0.0 0.0 0.01 0.31 0.31 90 1011.2
20260510004556 55 0 0.0 0.0 0.01 0.31 0.31 90 1011.0
20260510004040 55 0 0.0 0.0 0.01 0.31 0.31 90 1011.0
20260510003541 55 0 0.0 1.0 0.01 0.31 0.31 90 1011.0
20260510003044 55 0 0.0 1.0 0.02 0.31 0.31 90 1011.1
20260510002540 55 0 0.0 1.0 0.02 0.31 0.31 90 1011.0
20260510002040 55 0 0.0 2.0 0.02 0.31 0.31 90 1011.0
20260510001551 55 0 0.0 2.0 0.03 0.31 0.31 90 1011.0
20260510001043 56 0 0.0 3.0 0.02 0.30 0.30 90 1011.0
20260510000543 56 0 1.0 3.0 0.02 0.30 0.30 90 1010.9
20260510000050 56 117 0.0 2.0 0.03 0.30 0.30 90 1010.8
20260509235540 56 0 0.0 3.0 0.03 0.30 0.30 90 1010.7
20260509235040 56 0 1.0 3.0 0.03 0.30 0.30 90 1010.8
20260509234601 56 94 1.0 3.0 0.04 0.30 0.30 90 1010.7
20260509234044 57 84 0.0 2.0 0.04 0.30 0.30 90 1010.7
20260509233540 57 67 0.0 1.0 0.05 0.30 0.30 90 1010.7
20260509233047 57 0 0.0 1.0 0.04 0.29 0.29 90 1010.7
20260509232543 57 68 0.0 1.0 0.05 0.29 0.29 90 1010.7
20260509232040 57 0 0.0 0.0 0.05 0.29 0.29 90 1010.7
20260509231545 57 0 0.0 1.0 0.05 0.28 0.28 90 1010.7
20260509231040 57 0 0.0 1.0 0.06 0.28 0.28 90 1010.9
20260509230542 57 0 0.0 1.0 0.07 0.28 0.28 90 1011.0
20260509230052 57 0 0.0 1.0 0.06 0.27 0.27 90 1011.1
20260509225541 57 0 0.0 1.0 0.07 0.27 0.27 90 1011.2
20260509225040 57 0 0.0 1.0 0.08 0.27 0.27 90 1011.1
20260509224551 57 0 0.0 2.0 0.07 0.26 0.26 90 1011.2
20260509224040 57 0 0.0 2.0 0.08 0.26 0.26 90 1011.2
20260509223540 57 0 0.0 2.0 0.08 0.25 0.25 90 1011.2
20260509223052 57 0 0.0 1.0 0.08 0.25 0.25 89 1011.3
20260509222541 57 0 0.0 2.0 0.08 0.24 0.24 90 1011.2
20260509222040 57 0 0.0 2.0 0.08 0.23 0.23 89 1011.2
20260509221605 57 99 0.0 2.0 0.08 0.23 0.23 89 1011.2
20260509221039 57 0 0.0 2.0 0.07 0.22 0.22 89 1011.2
20260509220541 57 88 1.0 2.0 0.06 0.21 0.21 89 1011.5
20260509220100 57 96 0.0 2.0 0.06 0.21 0.21 89 1011.6
20260509215541 57 0 0.0 2.0 0.05 0.20 0.20 89 1011.7
20260509215040 57 0 0.0 2.0 0.04 0.19 0.19 89 1011.5
20260509214547 57 0 0.0 1.0 0.05 0.19 0.19 89 1011.4
20260509214040 57 0 0.0 3.0 0.04 0.18 0.18 89 1011.4
20260509213540 57 0 1.0 3.0 0.03 0.17 0.17 88 1011.4
20260509213052 58 104 0.0 2.0 0.02 0.16 0.16 88 1011.8
20260509212544 58 0 0.0 0.0 0.03 0.16 0.16 88 1011.7
20260509212044 58 0 0.0 3.0 0.02 0.15 0.15 88 1011.6
20260509211552 58 0 0.0 3.0 0.02 0.15 0.15 88 1011.2
20260509211043 58 81 1.0 3.0 0.02 0.15 0.15 88 1011.1
20260509210541 58 0 0.0 1.0 0.03 0.15 0.15 87 1011.6
20260509210056 58 0 0.0 2.0 0.03 0.15 0.15 87 1011.6
20260509205540 58 0 0.0 2.0 0.03 0.15 0.15 87 1011.5
20260509205040 58 104 0.0 1.0 0.03 0.15 0.15 87 1011.6
20260509204556 58 0 0.0 1.0 0.03 0.14 0.14 86 1011.7